Location: Gipe Farm
(40.9466°N, 95.5370°W)
Time: 04:33:05
(UTC-06:00)

Daily predictions for brighter satellites

Satellite Brightness Start Highest point End
(mag) Time Altitude Azimuth Time Altitude Azimuth Time Altitude Azimuth
CENTAUR R/B 3.8 04:27:39 32° NNE 04:27:39 32° NNE 04:31:21 10° NNE
Cosmos 2369 Rocket 4.5 04:28:50 14° NNE 04:31:34 19° NE 04:35:28 10° E
Lacrosse 5 3.5 04:34:49 29° SE 04:35:23 30° ESE 04:39:48 10° ENE
Meteor 1-18 Rocket 4.4 04:47:22 71° NE 04:47:42 74° E 04:53:37 10° SSE
Feng Yun 1-1 Rocket 4.5 04:43:36 10° NNE 04:49:10 65° ESE 04:54:35 10° S
Meteor 1-20 Rocket 4.4 04:48:57 10° S 04:54:29 69° E 04:59:57 10° NNE
Tiangong 2 3.6 05:12:41 21° ENE 05:12:41 21° ENE 05:13:53 10° E
Cosmos 1943 Rocket 4.5 05:10:06 10° N 05:13:49 18° NE 05:17:31 10° E
Cosmos 1633 4.3 05:12:18 10° SSE 05:15:36 33° E 05:18:54 10° NNE
SL-08 ROCKET BODY 4.2 05:10:48 10° S 05:16:46 77° W 05:22:41 10° N
SL-16 R/B 3.6 05:22:03 23° N 05:22:03 23° N 05:24:36 10° N
Cosmos 2327 Rocket 4.4 05:13:36 10° S 05:19:59 79° W 05:26:19 10° N
Cosmos 2074 Rocket 3.9 05:23:06 10° SSW 05:29:18 63° W 05:35:32 10° N
Cosmos 1602 4.2 05:25:33 10° S 05:29:27 61° E 05:33:22 10° NNE
Okean 1 4.3 05:35:52 33° SSW 05:35:52 33° SSW 05:38:15 10° S
Cosmos 2056 Rocket 3.3 05:33:57 35° NNW 05:36:09 81° WSW 05:41:15 10° SSE
Meteor 1-25 Rocket 4.5 05:31:30 10° SSW 05:37:04 45° WNW 05:42:38 10° N
SKYMED 2 3.5 05:34:58 10° SSE 05:39:17 87° ENE 05:41:57 23° NNW
Meteor 1-11 Rocket 4.0 05:33:42 10° S 05:39:31 73° E 05:45:15 10° NNE
Abrixas rocket 2.1 05:43:15 87° S 05:43:16 87° SSE 05:46:39 10° ENE
Meteor 1-28 Rocket 4.0 05:41:49 10° SSE 05:45:30 51° ENE 05:49:13 10° N
Cosmos 1346 Rocket 3.4 05:47:10 37° SW 05:47:10 37° SW 05:50:00 10° SSW
Cosmos 2184 Rocket 4.1 05:40:37 10° SSW 05:46:32 48° WNW 05:52:31 10° N
Cosmos 1624 Rocket 4.1 05:47:20 31° NW 05:49:40 56° WSW 05:54:51 10° S
Ariane Rocket 3.2 05:45:07 10° NNE 05:50:11 74° ESE 05:55:14 10° S
Meteor 1-13 Rocket 4.2 05:44:52 10° NNW 05:50:50 78° W 05:56:45 10° S
DMSP B5D1-3 4.5 05:46:33 10° SSE 05:51:42 88° WSW 05:56:54 10° NNW
Cosmos 1371 Rocket 4.4 05:53:08 33° WNW 05:54:37 40° WSW 05:59:29 10° S
Cosmos 1238 Rocket 4.4 05:54:49 30° W 05:54:49 30° W 05:59:37 10° SSW
USA 215 3.2 05:50:44 10° NE 05:57:14 71° NW 06:03:42 10° WSW
Radarsat Rocket 4.5 05:52:54 10° NNE 05:59:58 72° WNW 06:07:57 10° SSW
CSL-04 Rocket 3.9 05:55:28 10° NNE 06:01:03 75° ESE 06:06:31 10° S
Cosmos 2154 Rocket 3.9 05:56:04 10° SSW 06:02:15 70° W 06:08:27 10° N
PSLV R/B 4.2 06:02:42 31° WSW 06:03:32 36° SSW 06:06:41 10° SE
CZ-2C R/B 4.4 05:59:42 10° NNE 06:04:20 32° E 06:08:49 10° SSE
Cosmos 1025 Rocket 3.1 06:02:22 10° N 06:06:47 79° E 06:11:07 10° S
Meteor 2-4 Rocket 3.7 06:03:39 10° N 06:09:12 90° E 06:14:53 10° S
IDEFIX/ARIANE 42P 4.3 06:06:11 10° NNE 06:10:57 36° E 06:15:42 10° SSE
Cosmos 44 Rocket 3.6 06:10:11 10° SW 06:15:09 47° NW 06:20:07 10° NNE
Cosmos 2369 Rocket 2.2 06:10:39 11° NNW 06:16:13 74° WSW 06:21:52 10° SSE
CENTAUR R/B 4.0 06:14:52 16° NW 06:16:48 18° NNW 06:21:32 10° NNE
Cosmos 1603 4.3 06:12:14 10° WSW 06:17:19 32° WNW 06:22:23 10° N
Lacrosse 5 2.1 06:14:07 15° WSW 06:18:09 48° NW 06:23:07 10° NE
CZ-4 R/B 2.3 06:14:38 10° NNE 06:18:30 51° E 06:22:17 10° S
Meteor 1-5 Rocket 4.3 06:13:35 10° S 06:18:55 74° E 06:24:13 10° NNE
Cosmos 1536 2.9 06:16:30 10° SSW 06:20:24 52° W 06:24:20 10° N
Okean 1 Rocket 3.6 06:17:25 10° SW 06:21:27 35° WNW 06:25:28 10° N
SL-24 DEB 4.3 06:19:07 10° S 06:23:49 60° W 06:28:35 10° NNW
Cosmos 1544 Rocket 4.1 06:20:16 10° S 06:24:32 62° E 06:28:53 10° NNE
Cosmos 1452 Rocket 3.5 06:20:11 10° NNW 06:25:26 70° WSW 06:30:40 10° S
COSMO-SKYMED 1 3.5 06:23:47 10° SSW 06:27:27 27° W 06:30:31 13° NW
SJ-12 4.5 06:25:37 10° NNE 06:29:46 63° E 06:33:53 10° S
SL-8 Rocket 4.0 06:27:16 10° S 06:33:33 86° W 06:39:49 10° N
IRS-1A Rocket 4.3 06:32:24 10° NNE 06:38:07 78° WNW 06:43:55 10° SSW
Lacrosse 4 Rocket 2.5 06:34:58 10° NNW 06:38:56 40° ENE 06:42:47 10° SE
Cosmos 1943 3.5 06:35:51 10° SW 06:41:11 44° WNW 06:46:36 10° NNE
Cosmos 2366 rocket 4.1 06:39:14 10° S 06:45:31 86° E 06:51:54 10° N
Lacrosse 5 rocket 3.9 06:45:30 10° N 06:45:35 10° N 06:45:39 10° N
Cosmos 839 Rocket 4.2 06:39:22 10° NNW 06:46:00 76° ENE 06:52:08 10° SE
Tiangong 2 1.0 06:44:45 13° WNW 06:47:28 86° SSW 06:50:38 10° ESE
Cosmos 1959 Rocket 4.4 06:41:39 10° S 06:47:46 80° W 06:53:53 10° N
Cosmos 1892 Rocket 3.6 06:44:21 10° NNW 06:48:46 63° W 06:53:11 10° S
Cosmos 1633 4.3 06:48:47 10° WSW 06:50:44 14° WNW 06:52:41 10° NW
Cosmos 2218 Rocket 4.0 06:46:06 10° SSW 06:52:29 75° W 06:58:54 10° N
Cosmos 1943 Rocket 2.2 06:52:38 10° NNW 06:58:08 72° WSW 07:03:36 10° SSE
PAYLOAD A 4.3 06:55:31 10° N 07:00:43 52° WNW 07:05:58 10° SSW
Cosmos 1626 Rocket 4.2 06:58:05 10° N 07:02:30 62° E 07:06:50 10° SSE
Helios 1B rocket 2.5 06:58:50 10° S 07:02:56 64° WSW 07:07:04 10° NNW
Cosmos 1269 Rocket 4.1 06:58:28 10° SSW 07:03:40 60° WNW 07:08:55 10° NNE
Cosmos 1975 2.9 07:00:42 10° S 07:04:47 90° W 07:08:55 10° N
Cosmos 158 Rocket 4.1 07:00:47 10° SSW 07:06:04 90° ESE 07:11:29 10° NNE
